Location: Overspoor
(51.4747°N, 5.6641°E)
Time: 15:56:02
(UTC+02:00)

DUCHIFAT 1 - Visible Passes

Search period start: 02 July 2022 00:00
Search period end: 12 July 2022 00:00
Orbit: 580 x 597 km, 98.0° (Epoch: 01 July)

Date Brightness Start Highest point End Pass type
(mag) Time Alt. Az. Time Alt. Az. Time Alt. Az.
02 Jul ? 02:59:18 10° ENE 03:01:19 13° E 03:03:20 10° ESE visible
02 Jul ? 04:33:08 10° NNE 04:37:20 80° WNW 04:41:33 10° SSW visible
03 Jul ? 03:06:29 10° NE 03:09:02 15° E 03:11:33 10° SE visible
04 Jul ? 03:13:47 10° NE 03:16:43 18° E 03:19:38 10° SE visible
05 Jul ? 03:21:10 10° NE 03:24:24 21° E 03:27:37 10° SE visible
06 Jul ? 03:28:35 10° NE 03:32:04 24° E 03:35:31 10° SSE visible
07 Jul ? 03:36:03 10° NE 03:39:43 28° E 03:43:23 10° SSE visible
08 Jul ? 03:43:31 10° NNE 03:47:22 33° E 03:51:12 10° SSE visible
09 Jul ? 03:51:02 10° NNE 03:55:00 39° E 03:58:57 10° SSE visible
10 Jul ? 03:58:33 10° NNE 04:02:38 46° E 04:06:41 10° S visible
11 Jul ? 04:06:05 10° NNE 04:10:15 55° E 04:14:22 10° S visible
